XINGYUN-2 02 (45603 NORAD) Tracking and Keplerian Element Data

This shows tracking and keplerian element data for the satellite.

Feedback or suggestion? Click here.




ElementValue
Catalog45603
NameXINGYUN-2 02
Epoch Orbit959
Epoch Day197.03980048
Epoch Year2020
RAAN226.4187
Inclination97.5667
Eccentricity0.0012614
Argument of Perigee45.8525
Mean Anonmoly314.3748
Mean Motion15.00746049
Decay Rate7.95E-06
L11 45603U 20028B 20197.03980048 .00000795 00000-0 67234-4 0 9998
L22 45603 97.5667 226.4187 0012614 45.8525 314.3748 15.00746049 9592

Live tracking and technical data element details for XINGYUN-2 02 (NORAD 45603). XINGYUN-2 02 can be tracked NOW for your location showing map with azimuth and elevation plus other details from your city location.

Track the satellite on the map from your city or location and see movement details for azimuth, elevation, latitude, longitude, range, height, and movement on the map or in text.







IsCatalogInMostPopularTable: catalog: 45603, numindb: 9
Update: records affected: 1



GetName: 45603 XINGYUN-2 02

Hit Count: updated at: Thu, 16 Jul 2020 04:30:10 GMT